This demonstration page uses our WeatherBlox Daily Observations layout. Learn more.

Left ArrowRight Arrow

44.8408, -93.29828

Hourly Observations for February 13, 2022

Temp ( °F °C ) Dew Point ( °F °C ) Humidity (%) Winds ( mph kmh ) Pressure ( in mb ) Visibility ( mi km ) Precip ( " mm )
12:01 am 00:01 Cloudy with Light Snow 3 -16.1 -2 -18.9 79 79 N 7 11 30.45 1031 2 3 0.00 0.00
12:10 am 00:10 Cloudy with Light Snow 3 -16.1 -2 -18.9 79 79 N 9 15 30.45 1031 1 2 0.00 0.00
12:16 am 00:16 Cloudy with Light Snow 3 -16.1 -3 -19.4 76 76 NNW 8 13 30.45 1031 2 3 0.00 0.00
12:23 am 00:23 Cloudy with Light Snow 2 -16.7 -3 -19.4 80 80 N 6 9 30.45 1031 3 5 0.00 0.00
12:43 am 00:43 Partly Cloudy 2 -16.7 -4 -20 76 76 N 7 11 30.45 1031 10 16 0.00 0.00
12:53 am 00:53 Mostly Cloudy 2 -16.7 -4 -20 76 76 N 9 15 30.42 1030 8 13 0.00 0.00
1:02 am 01:02 Partly Cloudy 2 -16.7 -5 -20.6 72 72 N 8 13 30.46 1032 7 11 0.00 0.00
1:15 am 01:15 Mostly Cloudy with Haze 2 -16.7 -5 -20.6 72 72 N 9 15 30.46 1032 6 10 0.00 0.00
1:48 am 01:48 Mostly Cloudy 1 -17 -8 -22 65 65 N 10 17 30.46 1032 10 16 0.00 0.00
1:53 am 01:53 Mostly Cloudy 1 -17.2 -7 -21.7 68 68 N 9 15 30.43 1030 10 16 0.00 0.00
2:53 am 02:53 Cloudy 0 -17.8 -7 -21.7 72 72 N 10 17 30.43 1031 8 13 0.00 0.00
3:53 am 03:53 Partly Cloudy -2 -18.9 -8 -22.2 75 75 N 7 11 30.44 1031 10 16 0.00 0.00
4:53 am 04:53 Clear -3 -19.4 -8 -22.2 79 79 NNW 6 9 30.48 1032 10 16 0.00 0.00
5:53 am 05:53 Clear -4 -20 -10 -23.3 75 75 N 8 13 30.49 1032 10 16 0.00 0.00
6:53 am 06:53 Clear -4 -20 -11 -23.9 71 71 N 8 13 30.49 1032 10 16 0.00 0.00
7:53 am 07:53 Sunny -5 -20.6 -11 -23.9 75 75 VRB 6 9 30.49 1033 10 16 0.00 0.00
8:53 am 08:53 Sunny -2 -18.9 -12 -24.4 62 62 NNE 6 9 30.50 1033 10 16 0.00 0.00
9:53 am 09:53 Partly Cloudy 0 -17.8 -12 -24.4 57 57 NE 5 7 30.50 1033 10 16 0.00 0.00
10:53 am 10:53 Mostly Sunny 0 -17.8 -11 -23.9 59 59 Calm 30.50 1033 10 16 0.00 0.00
11:53 am 11:53 Mostly Sunny 2 -16.7 -11 -23.9 54 54 S 5 7 30.47 1032 10 16 0.00 0.00
12:53 pm 12:53 Mostly Sunny 5 -15 -9 -22.8 52 52 SW 7 11 30.44 1031 10 16 0.00 0.00
1:53 pm 13:53 Mostly Cloudy 6 -14.4 -9 -22.8 49 49 SW 7 11 30.40 1030 10 16 0.00 0.00
2:53 pm 14:53 Cloudy 7 -13.9 -8 -22.2 50 50 S 5 7 30.36 1028 10 16 0.00 0.00
3:53 pm 15:53 Cloudy 7 -13.9 -8 -22.2 50 50 SW 6 9 30.32 1027 10 16 0.00 0.00
4:53 pm 16:53 Cloudy 7 -13.9 -8 -22.2 50 50 SSE 10 17 30.29 1026 10 16 0.00 0.00
5:53 pm 17:53 Cloudy 7 -13.9 -7 -21.7 52 52 S 13 20 30.27 1025 10 16 0.00 0.00
6:08 pm 18:08 Cloudy with Light Snow 7 -13.9 -6 -21.1 55 55 S 10 17 30.31 1026 10 16 0.00 0.00
6:21 pm 18:21 Cloudy with Light Snow 7 -13.9 -4 -20 60 60 S 10 17 30.32 1027 2 3 0.00 0.00
6:37 pm 18:37 Cloudy with Light Snow 6 -14.4 -2 -18.9 69 69 S 8 13 30.32 1027 2 3 0.01 0.25
6:53 pm 18:53 Cloudy with Light Snow 6 -14.4 -1 -18.3 73 73 SSW 8 13 30.29 1026 2 3 0.01 0.25
7:01 pm 19:01 Cloudy with Light Snow 6 -14.4 -1 -18.3 73 73 SSW 7 11 30.32 1027 2 2 0.00 0.00
7:12 pm 19:12 Mostly Cloudy with Light Snow 6 -14.4 0 -17.8 76 76 S 8 13 30.32 1027 1 2 0.01 0.25
7:23 pm 19:23 Cloudy with Light Snow 6 -14.4 0 -17.8 76 76 S 9 15 30.31 1026 2 3 0.02 0.51
7:26 pm 19:26 Cloudy with Light Snow 6 -14.4 0 -17.8 76 76 S 9 15 30.31 1026 4 6 0.02 0.51
7:41 pm 19:41 Cloudy with Light Snow 6 -14.4 0 -17.8 76 76 S 10 17 30.31 1026 5 8 0.02 0.51
7:53 pm 19:53 Cloudy with Light Snow 6 -14.4 0 -17.8 76 76 S 10 17 30.27 1025 4 6 0.02 0.51
8:21 pm 20:21 Cloudy with Light Snow 6 -14.4 0 -17.8 76 76 SSE 10 17 30.29 1026 4 6 0.00 0.00
8:46 pm 20:46 Cloudy with Light Snow 6 -14.4 0 -17.8 76 76 S 13 20 30.27 1025 9 14 0.00 0.00
8:53 pm 20:53 Cloudy with Light Snow 6 -14.4 -1 -18.3 73 73 SSE 14 22 30.23 1024 6 10 0.00 0.00
9:03 pm 21:03 Cloudy 6 -14.4 -1 -18.3 73 73 S 14 22 30.25 1024 9 14 0.00 0.00
9:53 pm 21:53 Cloudy with Light Snow 6 -14.4 -1 -18.3 73 73 SSE 12 19 30.18 1022 10 16 0.00 0.00
10:53 pm 22:53 Cloudy 6 -14.4 -1 -18.3 73 73 SSE 12 19 30.16 1022 8 13 0.00 0.00
11:53 pm 23:53 Cloudy with Light Snow 6 -14.4 -1 -18.3 73 73 SSE 10 17 30.14 1021 6 10 0.00 0.00

Powered by AerisWeather